Regional Weather Roundup
Issued by NWS Pendleton, OR

Home | Current Version | Previous Version | Text Only | Print | Product List | Glossary On
Versions: 1 2 3 4 5 6 7 8 9 10 11 12 13 14 15 16 17 18 19 20 21 22 23 24 25 26 27 28 29 30 31 32 33 34 35 36 37 38 39 40 41 42 43 44 45 46 47 48 49 50
000
ASUS46 KPDT 252225
RWRPDT
PENDLETON REGIONAL WEATHER ROUNDUP
NATIONAL WEATHER SERVICE PENDLETON OREGON
200 PM PST TUE NOV 25 2014

NOTE: FAIR INDICATES FEW OR NO CLOUDS BELOW 12,000 FEET WITH NO
SIGNIFICANT WEATHER AND/OR OBSTRUCTIONS TO VISIBILITY.

# INDICATES UNOFFICIAL STATION AND DATA

WAZ520-252310-
EAST SLOPES OF WASHINGTON CASCADES

CITY            SKY/WX      TMP DP  RH  WIND    PRES   REMARKS
#BULLFROG 2SW   N/A         40  40  100 E2      27.73S
#BUMPING DAM    N/A         44  N/A N/A S7      N/A
#CLE ELUM HS    N/A         42  41  96  SE3     30.10R
#CLE ELUM 2NW   N/A         40  40  100 E7      N/A
#CLE ELUM LAKE  N/A         48  46  93  W1      30.16S
#CLIFFDEL 2NW   N/A         49  48  96  CALM    N/A
#GLENWOOD       N/A         58  50  75  SW6     30.17R
#MANASTASH CYN  N/A         39  36  89  CALM    30.12R
#NELSON         N/A         42  41  96  CALM    30.18R
#NELSON 3SW     N/A         43  42  96  CALM    30.37F
#NILE           N/A         48  48  100 CALM    29.43S
#RONALD 2NW     N/A         47  45  93  SW5     29.99S
#SNOWDEN        N/A         51  49  93  NW1     N/A
#TEANAWAY 4NE   N/A         42  42  100 S2      N/A
#TROUT LAKE HS  N/A         57  51  80  NW6     N/A
#TROUT LAKE 1NE N/A         56  51  83  NW13    30.20R
$$

WAZ521-252310-
SIMCOE HIGHLANDS

CITY            SKY/WX      TMP DP  RH  WIND    PRES   REMARKS
#BICKLETON HS   N/A         52  46  80  W5      30.27S
#CENTERVILLE 4W N/A         56  51  83  W18     29.93S
#CENTERVILLE 1SWN/A         55  50  83  W21     30.15S
#GOLDENDALE     N/A         59  50  72  W23G35  N/A
#GOLDENDALE 1NE N/A         59  47  64  SW10    N/A
#GOLDENDALE 1S  N/A         58  52  80  W16G25  30.15R
#GOLDENDALE 5WNWN/A         58  51  77  SW20    30.16F
#GOODNOE HILLS  N/A         60  50  69  W30     N/A
#LYLE 6NE       N/A         55  51  86  SW15    30.18R
$$

WAZ026-252310-
KITTITAS VALLEY

CITY            SKY/WX      TMP DP  RH  WIND    PRES   REMARKS
ELLENSBURG AP   CLOUDY      46  38  73  E10     30.18R
#ELLENSBURG CWU N/A         42  38  86  E10     30.16R
#ELLENSBURG 3NE N/A         42  38  86  SE7     30.17R
#ELLENSBURG     N/A         44  42  93  E2      N/A
#ELLENSBURG 1E  N/A         42  37  82  E2      N/A
#KITTITAS 4N    N/A         42  36  79  E10     30.21R
#THORP 6N       N/A         40  39  96  S5      30.21S
$$

WAZ027-252310-
YAKIMA VALLEY

CITY            SKY/WX      TMP DP  RH  WIND    PRES   REMARKS
SUNNYSIDE AP    MOCLDY      54  43  66  E7      30.15R
YAKIMA AIRPORT  MOCLDY      52  42  69  SE6     30.16R
YAKIMA-VAGABOND MOCLDY      47  40  76  E16     30.16S WCI 41
#DONALD 2NE     N/A         57  42  57  SW2     28.99R
#GRANDVIEW      N/A         50  40  68  E3      30.18R
#MABTON         N/A         49  42  77  E8      30.15R
#NACHES 2SW     N/A         48  43  83  NE5     30.11S
#OUTLOOK DOT    N/A         N/A N/A N/A E2      N/A
#SELAH 8E       N/A         43  38  82  E10     N/A
#TERRACE HTS    N/A         53  46  77  CALM    30.15S
#TOPPENISH      N/A         57  47  69  CALM    30.07R
#WAPATO 4NE     N/A         57  42  57  SW2     28.99R
#WEST VALLEY    N/A         49  41  74  N6      30.16S
#W YAKIMA       N/A         48  41  77  NE3     30.19R
#WHITE SWAN 5E  N/A         57  47  69  N2      30.16S
#WILEY CITY 3W  N/A         50  41  71  N2      30.15F
$$

WAZ028-252310-
LOWER COLUMBIA BASIN...WASHINGTON

CITY            SKY/WX      TMP DP  RH  WIND    PRES   REMARKS
PASCO           LGT RAIN    44  43  96  NW9     30.23F
PROSSER AWOS    N/A         48  41  77  NE21    30.20R WCI 41
RICHLAND AWOS   CLOUDY      45  43  93  N8      30.23F
#BASIN CITY 5SW N/A         43  41  93  CALM    30.23R
#BENTON CITY    N/A         45  40  82  E7      30.14S
#CONNELL 5N     N/A         43  41  93  NE3     30.22F
#CONNELL 5NW    N/A         43  41  93  E1      30.19S
#ELTOPIA 6NW    N/A         42  41  96  N7      29.17S
#KAHLOTUS       N/A         42  40  93  SE14    30.20F WCI 35
#KENNEWICK      N/A         40  40  100 E2      27.73S
#KENNEWICK 3S   N/A         43  40  89  CALM    30.23F
#PATERSON       N/A         61  50  67  W3      30.15R
#PROSSER        N/A         46  38  73  NE10    30.17R
#SAGEMOOR 2W    N/A         43  41  93  W5      30.06F
#TOUCHET 2S     N/A         46  43  89  NW6     30.19S
#WEST PASCO     N/A         45  41  86  NW5     30.25S
$$

WAZ029-252310-
FOOTHILLS OF THE BLUES...WASHINGTON

CITY            SKY/WX      TMP DP  RH  WIND    PRES   REMARKS
WALLA WALLA AP  LGT RAIN    45  44  96  S8      30.20R FOG
#COLLEGE PLACE  N/A         48  40  74  SW7     30.21R
#DAYTON SCHOOL  N/A         45  41  86  N1      30.18R
#LOWDEN 2SE     N/A         46  44  93  W7      30.17S
#PLEASANT VIEW 1N/A         41  40  96  N5      30.23F
#PRESCOTT       N/A         47  45  93  NE2     30.18R
#SUDBURY        N/A         49  N/A N/A CALM    N/A
#WHITMAN COLLEGEN/A         45  43  93  S5      30.24R
#WAITSBURG 5S   N/A         44  43  96  SW9     30.27R
#WAITSBURG 8N   N/A         43  38  82  N3      30.12S
#WALLA WALLA 5E N/A         46  45  96  S6      N/A
#WALLA WALLA U  N/A         46  44  93  CALM    30.19S
#WHITMAN MISSIONN/A         46  44  93  W5      30.21R
$$

WAZ030-252310-
BLUE MOUNTAINS...WASHINGTON

CITY            SKY/WX      TMP DP  RH  WIND    PRES   REMARKS
#DIXIE 5SE      N/A         46  46  100 SW15    30.09S WCI 40
#SKI BLUEWOOD   N/A         42  40  93  N9G25   30.22S
$$

ORZ009-041-WAZ024-252310-
COLUMBIA RIVER GORGE

CITY            SKY/WX      TMP DP  RH  WIND    PRES   REMARKS
HOOD RIVER AP   CLOUDY      61  52  72  W6      30.22S
THE DALLES AP   CLOUDY      61  51  70  N16     30.20S
#ARLINGTON AIRPON/A         61  52  72  W17     29.97F
#CELILO DOT     N/A         62  48  60  W8      N/A
#MARYHILL 2W    N/A         61  53  75  W12     N/A
#MOSIER 1S      N/A         59  47  64  SW6     30.21S
#MURDOCK        N/A         61  55  81  W13G24  30.22S
#RUFUS DOT      N/A         61  46  58  NW31    N/A

$$

ORZ510-252310-
NORTH CENTRAL OREGON

CITY            SKY/WX      TMP DP  RH  WIND    PRES   REMARKS
#CHENOWITH 1W   N/A         55  51  86  NW18    N/A
#COW CYN RST AREN/A         55  45  69  SW10    N/A
#DUFUR 9E       N/A         57  48  72  W24G35  30.26F
#GRASS VALLEY   N/A         56  49  77  SW3     N/A
#GRASS VALLEY 1SN/A         58  49  72  SW17G26 30.20F
#KENT DOT       N/A         56  40  55  SW29    N/A
#MAUPIN SCHOOL  N/A         64  50  60  SW7     29.12S
#MORO SCHOOL    N/A         59  52  78  SW12G26 30.22S
#SHANIKO 5WSW   N/A         52  38  59  SW20    N/A
#SHANIKO 4NW    N/A         52  44  74  W18G25  30.27S
#TYGH VALLEY 2NEN/A         62  51  67  SW14    30.19F
#WAPANITIA AIRPON/A         58  49  72  W15     30.24S
#WASCO DOT      N/A         60  49  67  W15     N/A
#WASCO 5NE      N/A         58  51  77  N8      30.21R
$$

ORZ511-252310-
CENTRAL OREGON

CITY            SKY/WX      TMP DP  RH  WIND    PRES   REMARKS
BEND AIRPORT    MOCLDY      52  41  66  SW16    30.34F
MADRAS AIRPORT  MOCLDY      59  45  60  SW15    30.31S
PRINEVILLE AP   MOCLDY      59  43  55  SW12    30.33F
REDMOND AIRPORT PTCLDY      56  43  62  SW10    30.32F
#BEND 1SW       N/A         48  42  80  S1      N/A
#BEND-AWBREY    N/A         52  43  71  NE8     30.32F
#BEND-KIM LN    N/A         52  45  77  SW7     30.31F
#CROOKED RVR RANN/A         58  46  64  W12     30.29F
#CULVER         N/A         57  46  67  S14     30.26F
#LAKE BILLY CHINN/A         57  27  31  W6      30.31F
#POWELL BUTTE 3EN/A         56  43  62  SW7     N/A
#POWELL BUTTE   N/A         56  43  62  SW8     29.93F
#PRINEVILLE 3N  N/A         56  45  66  CALM    30.28S
#WARM SPRINGS   N/A         64  48  56  SE5     30.24S


ORZ509-252310-
EAST SLOPES OF OREGON CASCADES

CITY            SKY/WX      TMP DP  RH  WIND    PRES   REMARKS
#BLUE BOX PASS  N/A         46  -4  12  NW6     N/A
#BLACK BUTTE RNCN/A         50  46  86  CALM    30.33F
#CAMP SHERMAN   N/A         48  45  89  CALM    30.36F
#LA PINE DOT    N/A         51  35  54  SW10    N/A
#LA PINE 4NW    N/A         50  41  71  W8      30.40S
#LAVA BUTTE DOT N/A         46  38  73  SW1     N/A
#MT BACHELOR-MIDN/A         34  34  100 S32G46  N/A    WCI 20
#SISTERS AIRPOR N/A         55  49  80  N14G25  29.91S
#SISTERS ODOT   N/A         55  N/A N/A SW5     N/A
#SISTERS 3N     N/A         54  43  66  W3      30.31F
#SUNRIVER       N/A         51  44  77  SW5     30.25F
#SUNRIVER AP    N/A         61  57  87  CALM    30.29F
#SUTTLE LK DOT  N/A         42  42  100 W47G76  N/A    WCI 29
#TUMALO 3W      N/A         53  42  66  SE1     30.17F
#WANOGA BUTTE D N/A         41  39  93  W16G30  N/A    WCI 33

$$

ORZ044-252310-
LOWER COLUMBIA BASIN...OREGON

CITY            SKY/WX      TMP DP  RH  WIND    PRES   REMARKS
HERMISTON       MOCLDY      65  49  56  NW13G29 30.17R
#BOARDMAN 3W    N/A         65  51  60  W29     29.85F
#BOARDMAN 8SW   N/A         64  53  67  SW21    30.16F
#ECHO 8SW       N/A         66  50  56  W26G35  30.13S
#IONE SCHOOL    N/A         64  47  54  SW20G26 30.17F
#IRRIGON 4NW    N/A         64  52  65  SW21G30 N/A
#UMATILLA SCHOOLN/A         53  49  86  E12     30.19R
#UMATILLA       N/A         57  44  62  NE7     30.14R
$$

ORZ507-252310-
NORTHERN FOOTHILLS OF THE BLUES

CITY            SKY/WX      TMP DP  RH  WIND    PRES   REMARKS
PENDLETON AIRPT CLOUDY      56  48  74  N7      30.17R
#ADAMS 3WNW     N/A         50  46  86  NE5     30.18R
#ATHENA         N/A         48  45  89  NE2     30.20R
#CAYUSE         N/A         55  49  80  N7      30.16R
#HELIX SCHOOL   N/A         49  46  89  N3      30.17S
#HELIX 3N       N/A         47  45  93  N1      30.14S
#HELIX 6SW      N/A         49  45  86  N8      30.16S
#HOLDMAN 5SE    N/A         51  46  83  CALM    30.17S
#HOLDMAN 6E     N/A         47  43  86  S6      29.98S
#M-F FERNDALE   N/A         47  43  86  CALM    30.19S
#M-F GROVE ELEM N/A         47  42  83  CALM    30.18S
#M-FREEWATER 5SEN/A         48  45  89  CALM    30.17F
#PENDLETON DNTN N/A         61  44  53  N5      28.97S
#PDT AQUATIC CTRN/A         60  45  58  N5      30.14S
#PENDLETON 5NE  N/A         54  48  80  CALM    30.14R
#PDT SUNRIDGE   N/A         63  49  60  W12G24  30.17S
#PENDLETON 7NW  N/A         58  49  72  W2      27.60R
#TUTUILLA       N/A         62  49  62  W20G35  30.17S
#UMAPINE 2E     N/A         47  44  89  W1      30.17S
#WESTON SCHOOL  N/A         48  45  89  CALM    30.14F

$$

ORZ508-252310-
SOUTHERN FOOTHILLS OF THE BLUES

CITY            SKY/WX      TMP DP  RH  WIND    PRES   REMARKS
LEXINGTON       CLOUDY      63  48  58  SW22G25 30.22R
#AJAX           N/A         59  43  55  S17G38  30.14R
#CONDON SCHOOL  N/A         57  47  69  CALM    30.17S
#CONDON 5W      N/A         54  44  69  SW21G33 30.20F
#FOSSIL SCHOOL  N/A         58  47  67  W12     30.22S
#HEPPNER EOC    N/A         60  47  62  NW14G35 30.14F
#HEPPNER 4NE    N/A         57  47  69  W14G26  30.19S
#LEXINGTON 2SE  N/A         64  48  56  W15     30.17S
#MIKKALO        N/A         61  47  60  W12     30.19F
#OLEX 4N        N/A         63  51  65  SW20G26 30.17S
#RUGGS 5NE      N/A         57  46  67  W21G31  30.40S
#RUGGS 2SW      N/A         58  46  64  W20G30  30.21F

$$

ORZ502-503-252310-
BLUE MOUNTAINS

CITY            SKY/WX      TMP DP  RH  WIND    PRES   REMARKS
MEACHAM         LGT RAIN    49  47  93  MISG    30.20S FOG
#BATTLE MTN DOT N/A         49  47  93  S2      N/A
#HARDMAN 10S    N/A         49  42  77  CALM    30.52F
#HEPPNER 15SE   N/A         49  45  86  N7      30.16S
#LADD CYN SMT   N/A         53  39  59  W16     N/A
#LADD CREEK ODOTN/A         52   2  13  NE6     N/A
#LONG CREEK HS  N/A         54  46  74  NW8     30.23S
#N POWDER DOT   N/A         52  45  77  NE10    N/A
#PIKES PEAK     N/A         44  43  96  SW20G29 27.99S WCI 36
#TOLLGATE       N/A         43  43  100 S9G25   30.07R
#TROY SCHOOL    N/A         47  45  93  CALM    30.01S
#UKIAH          N/A         51  47  86  CALM    30.29S
#WESTON 4E      N/A         48  47  96  SW7     30.14S
$$

ORZ505-252310-
JOHN DAY BASIN

CITY            SKY/WX      TMP DP  RH  WIND    PRES   REMARKS
JOHN DAY        CLOUDY      56  42  59  W10     30.29S
#DAYVILLE SCHOOLN/A         61  41  48  W9      30.24S
#MONUMENT HS    N/A         61  43  51  N5      30.24S
#MT. VERNON 5SE N/A         53  40  61  SW7     30.25S
#WINLOCK        N/A         56  44  64  N8      30.32S
$$

ORZ506-252310-
OCHOCO AND JOHN DAY HIGHLANDS

CITY            SKY/WX      TMP DP  RH  WIND    PRES   REMARKS
#BUCK CREEK DOT N/A         53  47  80  SW14    N/A
#HORSE RIDGE DO N/A         50  39  66  W14     N/A
#KEYES SMT DOT  N/A         52  39  61  W12     N/A
#PAULINA SCHOOL N/A         55  41  59  W2      30.29S
#PINE MTN OBS   N/A         41  37  86  W1      N/A
#PRAIRIE CITY   N/A         51  40  66  NW7     30.27S
#SENECA         N/A         46  N/A N/A N5      N/A
#SENECA 9NW     N/A         46  41  83  CALM    30.36F
$$

ORZ049-252310-
GRANDE RONDE VALLEY

CITY            SKY/WX      TMP DP  RH  WIND    PRES   REMARKS
LA GRANDE       CLOUDY      54  45  71  W14     30.17S
#COVE           N/A         50  44  80  NW1     30.03S
#COVE SCHOOL    N/A         50  49  96  CALM    30.18R
#COVE 6NW       N/A         49  47  93  CALM    30.28S
#ELGIN 3N       N/A         54  46  74  S12     29.87R
#ELGIN 1E       N/A         53  49  86  CALM    N/A
#IMBLER SCHOOL  N/A         51  47  86  SE7     30.12R
#ISLAND CITY 4N N/A         61  57  87  SW5     30.28F
#LADD CYN DOT   N/A         55  45  69  N12     N/A
#UNION 1S       N/A         51  49  93  NE3     30.16S
$$

ORZ050-252310-
WALLOWA COUNTY

CITY            SKY/WX      TMP DP  RH  WIND    PRES   REMARKS
JOSEPH AIRPORT  LGT DRIZZLE 54  41  61  W5      30.14R
#ENTERPRISE AP  N/A         53  42  66  W15G25  30.06R
#ENTERPRISE HS  N/A         54  45  71  W9      30.12S
#IMNAHA SCHOOL  N/A         52  43  71  S10     30.11F
#IMNAHA 10S     N/A         52  46  80  N3      30.11S
#JOSEPH 3N      N/A         52  41  66  NW21G31 30.14R
#JOSEPH 3W      N/A         50  39  66  CALM    29.96R
#LOSTINE        N/A         54  45  71  W8      29.95S
#MT HOWARD 8000 N/A         36  33  89  W22G33  30.19S WCI 25
#PROMISE 1S     N/A         49  46  89  E10     30.23F
#SHEEP RDG 7000 N/A         38  37  96  CALM    30.12R
#WALLOWA SCHOOL N/A         54  47  77  W2      31.11S



$$



USA.gov is the U.S. government's official web portal to all federal, state and local government web resources and services.